This demonstration page uses our WeatherBlox Daily Observations layout. Learn more.

36.17497, -115.13722

Hourly Observations for March 5, 2018

Temp ( °F °C ) Dew Point ( °F °C ) Humidity (%) Winds ( mph kmh ) Pressure ( in mb ) Visibility ( mi km ) Precip ( " mm )
12:53 am 00:53 Clear 45 7.2 11 -11.7 25 25 NE 5 7 30.31 1026 10 16.0934 0 0
1:53 am 01:53 Clear 44 6.7 10 -12.2 25 25 N 9 15 30.31 1026 10 16.0934 0 0
2:53 am 02:53 Clear 43 6.1 10 -12.2 26 26 N 9 15 30.33 1027 10 16.0934 0 0
3:53 am 03:53 Clear 42 5.6 10 -12.2 27 27 N 7 11 30.35 1028 10 16.0934 0 0
4:53 am 04:53 Clear 41 5 10 -12.2 28 28 N 7 11 30.36 1028 10 16.0934 0 0
5:53 am 05:53 Clear 42 5.6 11 -11.7 28 28 N 8 13 30.36 1028 10 16.0934 0 0
6:53 am 06:53 Sunny 42 5.6 11 -11.7 28 28 N 9 15 30.37 1028 10 16.0934 0 0
7:53 am 07:53 Sunny 46 7.8 10 -12.2 23 23 NNW 14 22 30.37 1028 10 16.0934 0 0
8:53 am 08:53 Sunny 49 9.4 10 -12.2 21 21 N 12 19 30.37 1028 10 16.0934 0 0
9:53 am 09:53 Sunny 51 10.6 7 -13.9 17 17 NNE 9 15 30.36 1028 10 16.0934 0 0
10:53 am 10:53 Sunny 52 11.1 5 -15 15 15 Calm 30.35 1028 10 16.0934 0 0
11:53 am 11:53 Sunny 53 11.7 3 -16.1 13 13 Calm 30.33 1027 10 16.0934 0 0
12:53 pm 12:53 Sunny 56 13.3 2 -16.7 11 11 NE 5 7 30.29 1026 10 16.0934 0 0
1:53 pm 13:53 Sunny 57 13.9 0 -17.8 10 10 VRB 6 9 30.26 1025 10 16.0934 0 0
2:53 pm 14:53 Sunny 58 14.4 -3 -19.4 8 8 Calm 30.24 1024 10 16.0934 0 0
3:53 pm 15:53 Sunny 58 14.4 -4 -20 8 8 VRB 3 6 30.24 1024 10 16.0934 0 0
4:53 pm 16:53 Sunny 59 15 -4 -20 7 7 Calm 30.24 1024 10 16.0934 0 0
5:53 pm 17:53 Clear 56 13.3 -3 -19.4 9 9 SSE 6 9 30.24 1024 10 16.0934 0 0
6:53 pm 18:53 Clear 56 13.3 0 -17.8 10 10 Calm 30.24 1024 10 16.0934 0 0
7:53 pm 19:53 Clear 50 10 5 -15 16 16 NW 9 15 30.25 1024 10 16.0934 0 0
8:53 pm 20:53 Clear 48 8.9 7 -13.9 19 19 N 7 11 30.25 1024 10 16.0934 0 0
9:53 pm 21:53 Clear 49 9.4 0 -17.8 13 13 NW 3 6 30.27 1025 10 16.0934 0 0
10:53 pm 22:53 Clear 47 8.3 2 -16.7 15 15 NW 6 9 30.26 1025 10 16.0934 0 0
11:53 pm 23:53 Clear 46 7.8 0 -17.8 14 14 SSW 3 6 30.27 1025 10 16.0934 0 0

Powered by AerisWeather